Andover, NJ

7:56 PM EDT on June 22, 2017 (GMT -0400)
Andover

Weather History for K12N - April, 2014

Change the Weather History Date:

Sunday, April 6, 2014

  Actual Average (KFWN) Record (KFWN)
Temperature  
Mean Temperature 42 °F -  
Max Temperature 60 °F 54 °F 80 °F (1985)
Min Temperature 28 °F 32 °F 18 °F (2016)
Degree Days  
Heating Degree Days 22    
Moisture  
Dew Point 22 °F    
Average Humidity 50    
Maximum Humidity 82    
Minimum Humidity 17    
Precipitation  
Precipitation 0.00 in - - ()
Sea Level Pressure  
Sea Level Pressure 30.17 in    
Wind  
Wind Speed 3 mph (NW)    
Max Wind Speed 8 mph    
Max Gust Speed -    
Averages and records for this station are not official NWS values.
T = Trace of Precipitation, MM = Missing Value Source: NWS Daily Summary

Daily Weather History Graph

Daily Weather History Graph

Search for Another Location

Airport or City:

Trip Planner

Search our weather history database for the weather conditions in past years. The results will help you decide how hot, cold, wet, or windy it might be!

Date:

Astronomy

Apr. 06, 2014 Rise Set
Actual Time 6:34 AM EDT 7:29 PM EDT
Civil Twilight 6:06 AM EDT 7:57 PM EDT
Nautical Twilight 5:33 AM EDT 8:30 PM EDT
Astronomical Twilight 4:58 AM EDT 9:05 PM EDT
Moon 11:31 AM EDT (4/6) 1:24 AM EDT (4/6)
Length of Visible Light 13h 51m
Length of Day
12h 55m
Waxing Crescent, 43% of the Moon is Illuminated
Apr 6
Waxing Crescent
Apr 7
First Quarter
Apr 15
Full
Apr 22
Last Quarter
Apr 29
New

Hourly Weather History & Observations

Time (EDT) Temp. Windchill Dew Point Humidity Pressure Visibility Wind Dir Wind Speed Gust Speed Precip Events Conditions
12:54 AM 35.1 °F 32.2 °F 21.0 °F 57% 30.12 in - Variable 3.5 mph - N/A   Unknown
1:54 AM 33.1 °F 30.0 °F 21.0 °F 61% 30.12 in - North 3.5 mph - N/A   Unknown
2:54 AM 30.0 °F 26.5 °F 21.0 °F 69% 30.12 in - NNW 3.5 mph - N/A   Unknown
3:54 AM 30.9 °F 27.5 °F 21.9 °F 69% 30.13 in - NW 3.5 mph - N/A   Unknown
4:54 AM 30.0 °F - 21.9 °F 72% 30.15 in - Calm Calm - N/A   Unknown
5:54 AM 28.0 °F - 21.9 °F 78% 30.18 in - Calm Calm - N/A   Unknown
6:54 AM 30.0 °F - 21.9 °F 72% 30.21 in - Calm Calm - N/A   Unknown
7:54 AM 34.0 °F 28.0 °F 21.9 °F 61% 30.22 in - Variable 6.9 mph - N/A   Unknown
8:54 AM 37.0 °F 31.0 °F 21.0 °F 52% 30.21 in - NNW 8.1 mph - N/A   Unknown
9:54 AM 41.0 °F 36.4 °F 21.9 °F 47% 30.22 in - Variable 6.9 mph - N/A   Unknown
10:54 AM 45.0 °F 42.6 °F 19.0 °F 36% 30.22 in - Variable 4.6 mph - N/A   Unknown
11:54 AM 48.0 °F - 18.0 °F 30% 30.21 in - Variable 3.5 mph - N/A   Unknown
12:54 PM 52.0 °F - 17.1 °F 25% 30.19 in - Variable 3.5 mph - N/A   Unknown
1:54 PM 54.0 °F - 15.1 °F 22% 30.18 in - Calm Calm - N/A   Unknown
2:54 PM 55.9 °F - 15.1 °F 20% 30.18 in - SSE 3.5 mph - N/A   Unknown
3:54 PM 57.9 °F - 15.1 °F 19% 30.15 in - Calm Calm - N/A   Unknown
4:54 PM 57.9 °F - 14.0 °F 18% 30.14 in - South 4.6 mph - N/A   Unknown
5:54 PM 57.9 °F - 12.9 °F 17% 30.13 in - Variable 3.5 mph - N/A   Unknown
6:54 PM 55.9 °F - 14.0 °F 19% 30.13 in - Calm Calm - N/A   Unknown
7:54 PM 46.9 °F - 35.1 °F 63% 30.16 in - Calm Calm - N/A   Unknown
8:54 PM 43.0 °F - 32.0 °F 65% 30.21 in - Calm Calm - N/A   Unknown
9:54 PM 39.9 °F - 30.9 °F 70% 30.20 in - Calm Calm - N/A   Unknown
10:54 PM 37.9 °F - 32.0 °F 79% 30.20 in - Calm Calm - N/A   Unknown
11:54 PM 37.0 °F 34.5 °F 32.0 °F 82% 30.21 in - SSW 3.5 mph - N/A   Unknown